Regional Weather Roundup
Issued by NWS

Home | Current Version | Previous Version | Text Only | Print | Product List | Glossary On
Versions: 1 2 3 4 5 6 7 8 9 10 11 12 13 14 15 16 17 18 19 20 21 22 23 24 25 26 27 28 29 30 31 32 33 34 35 36 37 38 39 40 41 42 43 44 45 46 47 48 49 50
724
ASHW40 PHFO 291943
RWRHI

WEATHER ROUNDUP FOR HAWAII
NATIONAL WEATHER SERVICE HONOLULU HI
900 AM HST SUN MAY 29 2016

THIS IS AN AUTOMATED REPORT THAT HAS NOT BEEN QUALITY CONTROLLED.

NOTE..."FAIR" INDICATES FEW OR NO CLOUDS BELOW 12,000 FEET WITH NO
SIGNIFICANT WEATHER AND/OR OBSTRUCTIONS TO VISIBILITY.

* - THESE SITES REPORT LIMITED FIELDS

HIZ001>004-292000-
KAUAI-NIIHAU-

CITY           SKY/WX    TMP DP  RH WIND       PRES   REMARKS
LIHUE APT      SUNNY     78  69  73 E5        30.04R
PORT ALLEN*      N/A     81 N/A N/A SW5         N/A
POIPU*           N/A     81 N/A N/A NE5         N/A
PRINCEVILLE*     N/A     79 N/A N/A E2          N/A
KOKOLE POINT*    N/A     81 N/A N/A MISG        N/A
MOLOAA DAIRY*    N/A     81  70  69 E2          N/A
WAIMEA HTS*      N/A     84  68  58 S6          N/A
PUU OPAE*        N/A     75  64  69 SW2         N/A
PUU LUA*       NOT AVBL
MAKAHA RIDGE*    N/A     79  63  57 N1          N/A
$$

HIZ005>011-292000-
OAHU-

CITY           SKY/WX    TMP DP  RH WIND       PRES   REMARKS
HONOLULU       MOSUNNY   78  68  71 S3        30.02S
KALAELOA       SUNNY     80  67  64 SE6       30.03S
KANEOHE MCB    MOSUNNY   81  69  67 N7        30.00S
WHEELER FIELD  FAIR      77  67  70 VRB3      30.03R
BELLOWS*         N/A    N/A N/A N/A NE5         N/A
KAHUKU*          N/A    N/A N/A N/A VRB5G10     N/A
WHEELER*         N/A    N/A N/A N/A SE3G10      N/A
WAIANAE HARBOR   N/A    N/A N/A N/A SW6         N/A
DILLINGHAM*      N/A     88  72  58 MISG        N/A  HX  94
KAHUKU TRN*      N/A     81  64  57 CALM        N/A
KAWAILOA*        N/A     79  64  61 SW1         N/A
KII*             N/A     79  72  78 E7          N/A
MAKUA RANGE*     N/A     79  66  65 W3          N/A
OAHU FOREST NW   N/A     79 N/A N/A S2          N/A
SCHOFIELD BRK*   N/A     75  64  69 MISG        N/A
SCHOFIELD S*   NOT AVBL
WAIANAE VLY*   NOT AVBL
KUAOKALA*        N/A     77  66  69 N6          N/A
HONOULIUULI*   NOT AVBL
MOKUOLOE IS*   NOT AVBL
PALEHUA*         N/A     72  64  78 S3          N/A
WAIAWA PHB*    NOT AVBL
$$

HIZ012>013-292000-
MOLOKAI-

CITY           SKY/WX    TMP DP  RH WIND       PRES   REMARKS
MOLOKAI AIRPT  MOSUNNY   77  64  64 CALM      30.04R
KALAUPAPA      NOT AVBL
MAKAPULAPAI*     N/A     81  68  65 E5          N/A
MOLOKAI 1*     NOT AVBL
PUU ALII*        N/A     64  58  81 W1          N/A
$$

HIZ016-292000-
KAHOOLAWE-

CITY           SKY/WX    TMP DP  RH WIND       PRES   REMARKS
KAHOOLAWE*       N/A     73 N/A N/A SE1         N/A
HAKIOAWA*        N/A     91  80  68 MISG      30.46R HX 108
HONOKANAIA*      N/A     81  68  63 E8G15     29.96S
KANELOA*         N/A     77  68  73 E8        30.09R
KEALIALALO*    NOT AVBL
LUA MAKIKA*    NOT AVBL
$$

HIZ014>015-292000-
LANAI-

CITY           SKY/WX    TMP DP  RH WIND       PRES   REMARKS
LANAI CITY     PTSUNNY   73  66  78 NW6       30.09R
LANAI 1*       NOT AVBL
$$

HIZ017>028-292000-
MAUI-

CITY           SKY/WX    TMP DP  RH WIND       PRES   REMARKS
KAHULUI        MOSUNNY   80  66  62 CALM      30.02S
KAPALUA-W MAUI MOSUNNY   81  66  61 VRB3      30.04
HANA AIRPORT   NOT AVBL
HANA*            N/A     79 N/A N/A E8          N/A
HALEAKALA SUMM   N/A     50  23  34 N10         N/A
MAALAEA BAY*     N/A     84 N/A N/A S9          N/A
HALEAKALA*     NOT AVBL
KAUPO GAP*       N/A     66  63  88 S3          N/A
KULA 1*          N/A     58  43  58 NW3         N/A
$$

HIZ023>026-292000-
BIG ISLAND OF HAWAII COAST AND LOWER SLOPES-

CITY           SKY/WX    TMP DP  RH WIND       PRES   REMARKS
KAILUA KONA    MOSUNNY   80  70  71 S10       30.01R
HILO           MOSUNNY   80  66  62 S6        30.03S
HONOKAA*         N/A     79 N/A N/A VRB1        N/A
KAWAIHAE MWT*    N/A     79 N/A N/A NW6         N/A
KAWAIHAE*        N/A     77 N/A N/A W8        30.02R
SOUTH POINT*     N/A     73 N/A N/A N7          N/A
UPOLU AIRPORT*   N/A    N/A N/A N/A NE10        N/A
KAMUELA*       NOT AVBL
HAKALAU*         N/A     61  55  79 NE5G10      N/A
KALOKO-HONOKO*   N/A     79  68  69 S7        30.01
PALI 2*          N/A     68  61  77 N6          N/A
KEALAKOMO*       N/A     81  66  61 E6          N/A
KAUPULEHU*       N/A     79  66  65 N3          N/A
KAPAPALA*        N/A     73  63  71 VRB1        N/A
LOWER KAHUKU*    N/A     64 -38   1 E1G8        N/A
PUHE CS*         N/A     79  66  65 W5          N/A
PUHO CS*         N/A     82  67  59 S2          N/A
PTA KEAMUKU*     N/A     73  48  40 CALM        N/A
WAIKOLOA*        N/A     79  66  65 NW7G14      N/A
$$

HIZ027>028-292000-
BIG ISLAND OF HAWAII INTERIOR AND SUMMMITS-

CITY           SKY/WX    TMP DP  RH WIND       PRES   REMARKS
BRADSHAW FIELD SUNNY     64  51  63 W7        30.32S
MK VISITOR CEN   N/A     52  45  76 W12         N/A
MAUNA KEA*       N/A     43   1  17 N15         N/A
MAUNA LOA*       N/A     48  36  61 MISG        N/A
MAUNA LOA 1*   NOT AVBL
PTA KIPUKA*      N/A     66  52  59 N5G10       N/A
PTA RANGE 17*    N/A     52  37  58 NW7         N/A
PTA WEST*        N/A     68  50  52 N7          N/A
NENE CABIN*      N/A     54  50  87 E3G10       N/A
AHUMOA*          N/A     61  47  59 N9          N/A
PTA PORTABLE*  NOT AVBL
PUU MALI*        N/A     61  46  59 NW8         N/A
$$

HIC003-292000-
NORTHWEST ISLANDS-

CITY           SKY/WX    TMP DP  RH WIND       PRES   REMARKS
MIDWAY ISLAND  CLOUDY    72  64  78 E8        30.19R
MIDWAY NOS*      N/A     72 N/A N/A MISG      30.18S
FRENCH FRIGATE NOT AVBL
$$

PHZ110>124-180-292000-
BUOY REPORTS

STATION/POSITION TIME  TEMP    WIND        PRES    WAVE   SWELL
                       AIR SEA DIR/SP/G            HT/PER HT/DIR
                 (UTC) (F)     (DEG/KT/KT) (MB)    (FT/S) (FT/D)
BUOY 51001       1900   78 80   50/ 12/ 14 1017.8R
BUOY 51101       1850   76 79   30/  8/ 10 1017.5R   4/12   3/310
BUOY 51100       NOT AVBL
BUOY 51002       1850   78 79   80/ 10/ 12 1016.0R   5/ 8   5/100
BUOY 51003       1850   80 81     CALM     1016.2R   4/15
BUOY 51004       1850   77 79   80/  8/ 10 1016.4R   6/ 8   5/ 90
BARBERS PT BUOY  NOT AVBL
WAIMEA BAY BUOY  1904      79                N/A     2/13
KAILUA BAY BUOY  1911      78                N/A     3/ 8   2/130
LANAI BUOY       1915      80                N/A     2/13   2/200
BARBERS PT 2     1903      79                N/A     4/15   3/160
PAUWELA MAUI     1909      79                N/A     4/ 9
HILO             1912      79                N/A     5/ 8   2/140
KANEOHE BAY BUOY 1906      78                N/A     2/ 8
HANALEI KAUAI    NOT AVBL
KAHULUI HARBOR   1900   77 79  350/  5/  5 1016.4R
HONOLULU HARBOR  1900   77 79  230/  5/  5 1017.3R
KILO NALU        NOT AVBL
HILO HARBOR      1900   85 78  170/  3/  6 1016.4R
MOKUOLOE         1800   81 81   CALM  /  1 1016.4R
NAWILIWILI       1900   78 80   90/  3/  5 1016.9R
WHOTS BUOY       NOT AVBL
BUOY 51028       NOT AVBL
$$

......................KEY........................................
  SKY/WX - SKY CONDITIONS/PRESENT WEATHER
  TMP    - TEMPERATURE IN FAHRENHEIT
  DWPT   - DEWPOINT IN FAHRENHEIT
  RH     - RELATIVE HUMIDITY IN PERCENT
  WIND   - DIRECTION AND SPEED /MPH FOR ISLANDS...KTS FOR BUOYS/
  PRES   - MEAN SEA LEVEL PRESSURE IN INCHES OF HG
  VSB    - VISIBILITY IN MILES
  HX     - HEAT INDEX
  WCI    - WIND CHILL INDEX
  VRB    - VARIABLE WIND DIRECTION
  N/A    - NOT AVAILABLE




USA.gov is the U.S. government's official web portal to all federal, state and local government web resources and services.